User: anonymous   Login
Location: Waldport
(44.4270°N, 124.0680°W)
Time: 05:51:58
(UTC-07:00)
Language:

Cosmos 1570 Rocket - Orbit

View from above orbital plane
View from above orbital plane
View from above satellite
View from above satellite

Ground track
Ground track

The orbit data is extracted from the following two-line orbital elements,

1 15032U 84056B   15185.89937663  .00000082  00000-0  38312-4 0  9996
2 15032 074.0724 300.0007 0018419 282.2371 216.7817 14.34582338624639
Epoch (UTC): 04 July 2015 21:35:06
Eccentricity: 0.0018419
inclination: 74.0724°
perigee height: 763 km
apogee height: 789 km
right ascension of ascending node: 300.0007°
argument of perigee: 282.2371°
revolutions per day: 14.34582338
mean anomaly at epoch: 216.7817°
orbit number at epoch: 62463

The dashed part of the orbit path shows where the satellite is in the earth's shadow,  

DLR